Regional Weather Roundup
Issued by NWS

Home | Current Version | Previous Version | Graphics & Text | Print | Product List | Glossary On
Versions: 1 2 3 4 5 6 7 8 9 10 11 12 13 14 15 16 17 18 19 20 21 22 23 24 25 26 27 28 29 30 31 32 33 34 35 36 37 38 39 40 41 42 43 44 45 46 47 48 49 50
770
ASUS44 KLIX 291407
RWRLA
LOUISIANA WEATHER ROUNDUP
NATIONAL WEATHER SERVICE NEW ORLEANS LA
900 AM CDT SUN MAR 29 2015

NOTE: "FAIR" INDICATES FEW OR NO CLOUDS BELOW 12,000 FEET WITH NO
      SIGNIFICANT WEATHER AND/OR OBSTRUCTIONS TO VISIBILITY.
      SKY/WX - SKY CONDITION AND SIGNIFICANT WEATHER.
      TMP - AIR TEMPERATURE.    DP   - DEWPOINT TEMPERATURE.
      RH  - RELATIVE HUMIDITY.  PRES - PRESSURE.
      HX  - HEAT INDEX.         WCI  - WIND CHILL INDEX.

*  THESE STATIONS ARE NOT NWS OR FAA STATIONS AND ARE NOT UNDER
   NWS QUALITY CONTROL.

LAZ040-048-061>063-065-066-069-291500-
SOUTHEAST LOUISIANA

CITY           SKY/WX    TMP DP  RH WIND       PRES   REMARKS
N.O. AUDUBON   NOT AVBL
N.O. INTL ARPT MOSUNNY   64  52  64 SE14      30.28R
N.O. LAKEFRONT SUNNY     66  52  60 SE18G26   30.29S
SLIDELL        SUNNY     57  48  72 VRB7      30.30R
BATON ROUGE    SUNNY     55  47  74 E10       30.28R
BOOTHVILLE     MOSUNNY   64  57  78 E8        30.31R
BELLE CHASSE   MOSUNNY   63  54  72 E12       30.29R
BOGALUSA*        N/A     52  36  54 SE7       30.33S
GALLIANO*      CLOUDY    67  61  81 MISG      30.29R
NEW ROADS*     FAIR      54  46  74 E10       30.28R
GONZALES*      FAIR      61  57  88 E7        30.28R
HAMMOND*       MOSUNNY   57  43  58 E7        30.31S
HOUMA*         MOSUNNY   63  61  94 SE9       30.28
PORT FOURCHON* PTSUNNY   68  63  83 SE12      30.31R

$$

LAZ041-044-053-054-291500-
SOUTHWEST LOUISIANA

CITY           SKY/WX    TMP DP  RH WIND       PRES   REMARKS
LAKE CHARLES   SUNNY     66  64  93 S8        30.21R
LAFAYETTE      MOSUNNY   61  59  93 SE5       30.25R
PATTERSON      SUNNY     63  57  82 E6        30.26R
SALT POINT       N/A     66  62  87 SE8       30.25R
NEW IBERIA     SUNNY     65  61  87 SE9       30.25R
CHENAULT AIRPK MOSUNNY   64  64 100 S8          N/A

$$

LAZ027-028-291500-
CENTRAL LOUISIANA

CITY           SKY/WX    TMP DP  RH WIND       PRES   REMARKS
FORT POLK      MOSUNNY   59  58  97 SE7       30.20S
ALEXANDRIA INT CLOUDY    58  56  93 SE12      30.21R FOG
ALEXANDRIA     CLOUDY    56  54  93 SE6       30.24R

$$

LAZ001-002-291500-
NORTHWEST LOUISIANA

CITY           SKY/WX    TMP DP  RH WIND       PRES   REMARKS
SHREVEPORT     CLOUDY    58  52  80 SE9       30.16R
BARKSDALE AFB  CLOUDY    56  50  79 S10       30.16S
DTN SHREVEPORT CLOUDY    55  48  77 SE8       30.16S

$$

LAZ014-016-291500-
NORTHEAST LOUISIANA

CITY           SKY/WX    TMP DP  RH WIND       PRES   REMARKS
MONROE         CLOUDY    52  43  71 S9        30.24R
TALLULAH       PTSUNNY   50  36  58 SE14      30.27S

$$




USA.gov is the U.S. government's official web portal to all federal, state and local government web resources and services.